User: anonymous   Login
Location: Girdwood
(60.9430°N, 149.1660°W)
Time: 23:33:20
(UTC-09:00)
Language:

Iridium 86 - Orbit

View from above orbital plane
View from above orbital plane
View from above satellite
View from above satellite

Ground track
Ground track

The orbit data is extracted from the following two-line orbital elements,

1 25528U 98066B   15030.91379610  .00000397  00000-0  13459-3 0  3242
2 25528 086.3985 352.7927 0002005 097.3133 262.8290 14.34220085854916
Epoch (UTC): 30 January 2015 21:55:51
Eccentricity: 0.0002005
inclination: 86.3985°
perigee height: 776 km
apogee height: 779 km
right ascension of ascending node: 352.7927°
argument of perigee: 97.3133°
revolutions per day: 14.34220085
mean anomaly at epoch: 262.8290°
orbit number at epoch: 85491

The dashed part of the orbit path shows where the satellite is in the earth's shadow,  

DLR